Zurück zum Katalog

H-2 R/B

AktivPO
NORAD 24279·ROCKET BODY·🇯🇵 Japan

Gestartet Aug 17, 1996 von Tanegashima Space Center

Loading…

Nächste Überflüge (nächste 24 Stunden)

TLE

AktuellSource: Space-Track

Epoche: Sep 14, 2026, 18:13 UTC

1 24279U 96046C   26257.75950784  .00000006  00000-0  55084-4 0  9998
2 24279  98.7599 184.8210 0298698 315.9876  68.1204 13.47493358478634

Verfolge H-2 R/B in Echtzeit mit AllMySat

Download on the App Store